Вернуться в каталог

THORAD DELTA 1 DEB

АктивенSSO
NORAD 8556·DEBRIS·🇺🇸 United States

Запущен Nov 15, 1974 с Vandenberg Space Force Base

Loading…

Ближайшие Пролёты (ближайшие 24 часа)

TLE

СвежийSource: Space-Track

Эпоха: Sep 14, 2026, 07:24 UTC

1 08556U 74089CT  26257.30851149  .00000049  00000-0  56609-3 0  9997
2 08556 101.3490  30.6843 0080569 353.1511  35.6770 12.53547947368131

Отслеживайте THORAD DELTA 1 DEB в реальном времени с AllMySat

Download on the App Store